Cortez, CO

5:58 AM MDT on March 29, 2017 (GMT -0600)
Cortez Municipal

Weather History for KCEZ - August, 2013

Change the Weather History Date:

Thursday, August 22, 2013

  Actual Average Record
Temperature  
Mean Temperature 71 °F 68 °F  
Max Temperature 86 °F 85 °F 95 °F (2007)
Min Temperature 55 °F 52 °F 44 °F (2004)
Degree Days  
Heating Degree Days 0 0  
Month to date heating degree days 0 0  
Since 1 June heating degree days 12 78  
Since 1 July heating degree days 0 3  
Cooling Degree Days 6 4  
Month to date cooling degree days 125 122  
Year to date cooling degree days 550 386  
Since 1 June cooling degree days 550 381  
Growing Degree Days 20 (Base 50)    
Moisture  
Dew Point 53 °F    
Average Humidity 61    
Maximum Humidity 93    
Minimum Humidity 29    
Precipitation  
Precipitation 0.02 in 0.04 in 0.27 in (2014)
Month to date precipitation 1.02 1.07  
Year to date precipitation 5.29 7.98  
Sea Level Pressure  
Sea Level Pressure 30.01 in    
Wind  
Wind Speed 6 mph (South)    
Max Wind Speed 16 mph    
Max Gust Speed 20 mph    
Visibility 10 miles    
Events      
T = Trace of Precipitation, MM = Missing Value Source: NWS Daily Summary

Daily Weather History Graph

Daily Weather History Graph

Search for Another Location

Airport or City:

Trip Planner

Search our weather history database for the weather conditions in past years. The results will help you decide how hot, cold, wet, or windy it might be!

Date:

Astronomy

Aug. 22, 2013 Rise Set
Actual Time 6:36 AM MDT 7:56 PM MDT
Civil Twilight 6:09 AM MDT 8:24 PM MDT
Nautical Twilight 5:37 AM MDT 8:56 PM MDT
Astronomical Twilight 5:02 AM MDT 9:30 PM MDT
Moon 8:47 PM MDT (8/22) 8:25 AM MDT (8/22)
Length of Visible Light 14h 14m
Length of Day
13h 19m
Waning Gibbous, 96% of the Moon is Illuminated
Aug 22
Waning Gibbous
Aug 28
Last Quarter
Sep 5
New
Sep 12
First Quarter
Sep 19
Full

Hourly Weather History & Observations

Time (MDT) Temp. Heat Index Dew Point Humidity Pressure Visibility Wind Dir Wind Speed Gust Speed Precip Events Conditions
12:53 AM 62.1 °F - 59.0 °F 90% 30.00 in 10.0 mi Calm Calm - N/A   Partly Cloudy
1:53 AM 62.1 °F - 59.0 °F 90% 30.00 in 10.0 mi Calm Calm - N/A   Mostly Cloudy
2:53 AM 62.1 °F - 59.0 °F 90% 30.06 in 10.0 mi West 3.5 mph - 0.01 in   Overcast
3:53 AM 61.0 °F - 57.0 °F 87% 30.04 in 10.0 mi Calm Calm - N/A   Partly Cloudy
4:53 AM 59.0 °F - 55.9 °F 90% 30.04 in 10.0 mi East 5.8 mph - N/A   Clear
5:53 AM 57.0 °F - 54.0 °F 89% 30.06 in 10.0 mi NE 4.6 mph - N/A   Clear
6:53 AM 55.9 °F - 53.1 °F 90% 30.08 in 10.0 mi ENE 6.9 mph - 0.01 in   Clear
7:53 AM 57.9 °F - 54.0 °F 87% 30.10 in 10.0 mi Calm Calm - N/A   Clear
8:53 AM 63.0 °F - 55.0 °F 75% 30.12 in 10.0 mi Calm Calm - N/A   Clear
9:53 AM 69.1 °F - 55.0 °F 61% 30.10 in 10.0 mi Calm Calm - N/A   Clear
10:53 AM 73.9 °F - 53.1 °F 48% 30.08 in 10.0 mi Calm Calm - N/A   Clear
11:53 AM 78.1 °F - 54.0 °F 43% 30.06 in 10.0 mi South 9.2 mph - N/A   Clear
12:53 PM 79.0 °F - 55.0 °F 44% 30.03 in 10.0 mi SSW 12.7 mph - N/A   Clear
1:53 PM 82.0 °F 81.4 °F 55.0 °F 39% 30.01 in 10.0 mi SW 13.8 mph - N/A   Clear
2:53 PM 84.0 °F - 52.0 °F 33% 29.97 in 10.0 mi SW 9.2 mph - N/A   Clear
3:53 PM 84.9 °F - 48.0 °F 28% 29.94 in 10.0 mi SSW 11.5 mph - N/A   Clear
4:53 PM 84.9 °F - 48.0 °F 28% 29.91 in 10.0 mi SW 12.7 mph - N/A   Clear
5:53 PM 82.0 °F - 50.0 °F 33% 29.91 in 10.0 mi SSW 11.5 mph - N/A   Clear
6:53 PM 81.0 °F - 48.0 °F 31% 29.92 in 10.0 mi WSW 3.5 mph - N/A   Clear
7:53 PM 73.0 °F - 52.0 °F 48% 29.94 in 10.0 mi Calm Calm - N/A   Clear
8:53 PM 66.9 °F - 53.1 °F 61% 29.96 in 10.0 mi Variable 3.5 mph - N/A   Clear
9:53 PM 64.9 °F - 50.0 °F 58% 29.97 in 10.0 mi ENE 8.1 mph - N/A   Clear
10:53 PM 63.0 °F - 48.9 °F 60% 29.96 in 10.0 mi ENE 8.1 mph - N/A   Clear
11:53 PM 62.1 °F - 51.1 °F 67% 29.96 in 10.0 mi NNE 8.1 mph - N/A   Clear